FW7875 Weather Reports


Display with metric or nautical units.
time (UTC)temp
F
wind
direction
speed
MPH
gust
MPH
rain 1hr
in
rain 24hr
in
rain mn
in
humidity
%
barometer
mb
20260510093033 37 107 5.0 8.0 0.00 0.00 0.00 42 1021.2
20260510092514 36 79 5.0 11.0 0.00 0.00 0.00 44 1021.2
20260510092014 37 103 4.0 11.0 0.00 0.00 0.00 43 1021.1
20260510091534 37 97 8.0 11.0 0.00 0.00 0.00 43 1021.0
20260510091013 37 115 6.0 8.0 0.00 0.00 0.00 44 1020.9
20260510090514 37 93 6.0 9.0 0.00 0.00 0.00 44 1020.9
20260510090035 37 89 6.0 9.0 0.00 0.00 0.00 44 1020.8
20260510085514 36 105 6.0 9.0 0.00 0.00 0.00 45 1020.8
20260510085015 36 103 3.0 7.0 0.00 0.00 0.00 46 1020.7
20260510084532 36 103 2.0 7.0 0.00 0.00 0.00 46 1020.6
20260510084014 37 118 4.0 7.0 0.00 0.00 0.00 45 1020.5
20260510083516 38 91 4.0 9.0 0.00 0.00 0.00 44 1020.7
20260510083033 38 109 5.0 9.0 0.00 0.00 0.00 44 1020.5
20260510082514 39 105 6.0 9.0 0.00 0.00 0.00 43 1020.7
20260510082016 39 110 2.0 7.0 0.00 0.00 0.00 43 1020.5
20260510081532 39 75 4.0 7.0 0.00 0.00 0.00 43 1020.6
20260510081014 38 87 3.0 6.0 0.00 0.00 0.00 44 1020.5
20260510080514 38 110 5.0 7.0 0.00 0.00 0.00 44 1020.6
20260510080034 38 79 4.0 7.0 0.00 0.00 0.00 45 1020.7
20260510075513 37 88 5.0 10.0 0.00 0.00 0.00 46 1020.7
20260510075013 38 96 6.0 10.0 0.00 0.00 0.00 45 1020.6
20260510074536 37 97 6.0 10.0 0.00 0.00 0.00 46 1020.6
20260510074014 38 128 5.0 7.0 0.00 0.00 0.00 44 1020.6
20260510073513 38 115 3.0 9.0 0.00 0.00 0.00 43 1020.6
20260510073032 40 102 4.0 9.0 0.00 0.00 0.00 40 1020.6
20260510072513 40 98 5.0 9.0 0.00 0.00 0.00 40 1020.8
20260510072013 39 97 4.0 7.0 0.00 0.00 0.00 41 1020.6
20260510071532 39 120 4.0 7.0 0.00 0.00 0.00 42 1020.8
20260510071013 39 100 3.0 7.0 0.00 0.00 0.00 44 1020.7
20260510070513 40 126 4.0 8.0 0.00 0.00 0.00 42 1020.7
20260510070031 40 105 4.0 8.0 0.00 0.00 0.00 41 1020.7
20260510065515 39 126 4.0 7.0 0.00 0.00 0.00 42 1020.5
20260510065014 39 90 5.0 7.0 0.00 0.00 0.00 43 1020.5
20260510064533 38 78 5.0 7.0 0.00 0.00 0.00 42 1020.5
20260510064015 39 139 4.0 8.0 0.00 0.00 0.00 42 1020.3
20260510063515 40 127 4.0 8.0 0.00 0.00 0.00 42 1020.3
20260510063032 41 101 5.0 7.0 0.00 0.00 0.00 41 1020.1
20260510062515 41 115 4.0 7.0 0.00 0.00 0.00 40 1020.1
20260510062016 41 80 5.0 7.0 0.00 0.00 0.00 40 1020.1
20260510061536 41 94 5.0 7.0 0.00 0.00 0.00 39 1020.0
20260510061016 41 91 5.0 7.0 0.00 0.00 0.00 40 1020.0
20260510060515 41 91 5.0 9.0 0.00 0.00 0.00 40 1019.9
20260510060045 40 99 4.0 9.0 0.00 0.00 0.00 40 1019.8
20260510055514 40 91 5.0 9.0 0.00 0.00 0.00 40 1019.8
20260510055017 41 103 4.0 8.0 0.00 0.00 0.00 39 1019.8
20260510054533 41 115 5.0 8.0 0.00 0.00 0.00 38 1019.7
20260510054014 41 96 5.0 8.0 0.00 0.00 0.00 39 1019.7
20260510053512 42 79 4.0 7.0 0.00 0.00 0.00 38 1019.6
20260510053032 43 91 4.0 6.0 0.00 0.00 0.00 36 1019.5
20260510052515 43 112 4.0 6.0 0.00 0.00 0.00 35 1019.5
20260510052018 43 101 4.0 6.0 0.00 0.00 0.00 35 1019.5
20260510051530 43 88 3.0 5.0 0.00 0.00 0.00 35 1019.5
20260510051014 43 87 4.0 6.0 0.00 0.00 0.00 35 1019.4
20260510050515 43 91 4.0 6.0 0.00 0.00 0.00 35 1019.4
20260510050034 43 103 3.0 6.0 0.00 0.00 0.00 36 1019.4
20260510045517 43 87 4.0 6.0 0.00 0.00 0.00 37 1019.4
20260510045014 42 91 4.0 6.0 0.00 0.00 0.00 37 1019.4
20260510044537 42 101 1.0 5.0 0.00 0.00 0.00 37 1019.4
20260510044017 43 99 3.0 5.0 0.00 0.00 0.00 36 1019.4
20260510043514 45 69 2.0 5.0 0.00 0.00 0.00 34 1019.3
20260510043040 45 89 1.0 4.0 0.00 0.00 0.00 34 1019.2
20260510042523 46 78 2.0 5.0 0.00 0.00 0.00 33 1019.3
20260510042015 47 89 3.0 5.0 0.00 0.00 0.00 30 1019.2
20260510041533 48 103 2.0 3.0 0.00 0.00 0.00 29 1019.1
20260510041016 48 106 1.0 2.0 0.00 0.00 0.00 29 1019.1
20260510040514 49 85 1.0 3.0 0.00 0.00 0.00 27 1019.0
20260510040032 50 85 1.0 3.0 0.00 0.00 0.00 26 1019.1
20260510035514 53 60 1.0 3.0 0.00 0.00 0.00 24 1019.0
20260510035016 55 84 0.0 2.0 0.00 0.00 0.00 20 1018.9
20260510034532 56 77 1.0 3.0 0.00 0.00 0.00 19 1018.9
20260510034013 59 271 1.0 3.0 0.00 0.00 0.00 15 1018.8
20260510033516 58 266 0.0 3.0 0.00 0.00 0.00 16 1018.6
20260510033033 59 265 2.0 5.0 0.00 0.00 0.00 16 1018.6
20260510032515 59 273 3.0 5.0 0.00 0.00 0.00 15 1018.4
20260510032015 59 242 3.0 3.0 0.00 0.00 0.00 15 1018.3
20260510031600 59 250 2.0 3.0 0.00 0.00 0.00 15 1018.2
20260510031012 59 250 2.0 3.0 0.00 0.00 0.00 15 1018.1
20260510030512 59 274 1.0 3.0 0.00 0.00 0.00 15 1018.1
20260510030031 59 0 1.0 3.0 0.00 0.00 0.00 15 1018.0
20260510025513 60 286 1.0 2.0 0.00 0.00 0.00 14 1017.7
20260510025016 60 285 1.0 2.0 0.00 0.00 0.00 14 1017.7
20260510024536 60 281 0.0 3.0 0.00 0.00 0.00 14 1017.7
20260510024013 61 304 2.0 3.0 0.00 0.00 0.00 14 1017.5
20260510023513 60 304 3.0 4.0 0.00 0.00 0.00 14 1017.5
20260510023043 60 303 3.0 4.0 0.00 0.00 0.00 14 1017.3
20260510022514 61 302 2.0 3.0 0.00 0.00 0.00 14 1017.3
20260510022015 60 301 2.0 5.0 0.00 0.00 0.00 15 1017.2
20260510021541 60 301 3.0 6.0 0.00 0.00 0.00 16 1017.2
20260510021012 61 292 3.0 7.0 0.00 0.00 0.00 16 1017.0
20260510020513 62 300 5.0 7.0 0.00 0.00 0.00 15 1017.0
20260510020032 63 299 4.0 8.0 0.00 0.00 0.00 15 1017.0
20260510015514 65 300 3.0 8.0 0.00 0.00 0.00 14 1017.0
20260510015014 66 290 6.0 9.0 0.00 0.00 0.00 13 1016.9
20260510014533 66 297 6.0 9.0 0.00 0.00 0.00 13 1017.0
20260510014013 67 302 6.0 10.0 0.00 0.00 0.00 12 1017.0
20260510013515 67 295 6.0 14.0 0.00 0.00 0.00 11 1016.8
20260510013037 67 310 6.0 15.0 0.00 0.00 0.00 12 1016.9
20260510012514 68 298 10.0 15.0 0.00 0.00 0.00 10 1016.8
20260510012014 69 284 10.0 17.0 0.00 0.00 0.00 11 1016.8
20260510011531 69 273 10.0 17.0 0.00 0.00 0.00 10 1016.7
20260510011017 69 310 11.0 15.0 0.00 0.00 0.00 11 1016.7
20260510010514 69 309 9.0 16.0 0.00 0.00 0.00 12 1016.7
20260510010032 69 300 12.0 16.0 0.00 0.00 0.00 12 1016.8
20260510005515 68 303 12.0 16.0 0.00 0.00 0.00 13 1016.8
20260510005017 68 293 10.0 15.0 0.00 0.00 0.00 13 1016.7
20260510004536 68 280 11.0 15.0 0.00 0.00 0.00 13 1016.8
20260510004012 68 278 9.0 13.0 0.00 0.00 0.00 14 1016.6
20260510003515 68 292 9.0 13.0 0.00 0.00 0.00 14 1016.7
20260510003036 68 304 8.0 16.0 0.00 0.00 0.00 16 1016.6
20260510002514 68 288 8.0 16.0 0.00 0.00 0.00 16 1016.7
20260510002014 68 291 10.0 15.0 0.00 0.00 0.00 16 1016.8
20260510001534 68 300 10.0 16.0 0.00 0.00 0.00 16 1016.7
20260510001013 68 302 11.0 16.0 0.00 0.00 0.00 16 1016.8
20260510000516 68 305 10.0 16.0 0.00 0.00 0.00 16 1016.8
20260510000032 68 293 10.0 16.0 0.00 0.00 0.00 16 1016.7
20260509235513 68 294 10.0 17.0 0.00 0.00 0.00 16 1016.6
20260509235013 69 290 11.0 19.0 0.00 0.00 0.00 17 1016.6
20260509234534 69 307 13.0 19.0 0.00 0.00 0.00 16 1016.6
20260509234013 69 289 13.0 20.0 0.00 0.00 0.00 17 1016.6
20260509233512 69 283 14.0 20.0 0.00 0.00 0.00 16 1016.4
20260509233031 69 312 12.0 18.0 0.00 0.00 0.00 17 1016.6
20260509232517 69 286 11.0 17.0 0.00 0.00 0.00 17 1016.4
20260509232011 70 310 11.0 18.0 0.00 0.00 0.00 16 1016.4
20260509231534 70 299 11.0 18.0 0.00 0.00 0.00 16 1016.5
20260509231012 70 287 9.0 20.0 0.00 0.00 0.00 17 1016.5
20260509230515 70 296 10.0 20.0 0.00 0.00 0.00 15 1016.6
20260509230032 71 304 13.0 22.0 0.00 0.00 0.00 16 1016.4
20260509225516 71 280 12.0 22.0 0.00 0.00 0.00 16 1016.5
20260509225015 71 281 13.0 22.0 0.00 0.00 0.00 16 1016.5
20260509224533 71 290 13.0 22.0 0.00 0.00 0.00 17 1016.4
20260509224013 71 297 12.0 22.0 0.00 0.00 0.00 17 1016.4
20260509223516 71 257 13.0 22.0 0.00 0.00 0.00 17 1016.6
20260509223034 70 272 5.0 14.0 0.00 0.00 0.00 20 1016.5
20260509222513 71 279 9.0 16.0 0.00 0.00 0.00 18 1016.6
20260509222014 71 292 11.0 16.0 0.00 0.00 0.00 19 1016.5
20260509221537 71 260 5.0 19.0 0.00 0.00 0.00 19 1016.6
20260509221013 72 298 11.0 19.0 0.00 0.00 0.00 16 1016.8
20260509220513 72 283 15.0 19.0 0.00 0.00 0.00 17 1016.8
20260509220031 71 281 8.0 16.0 0.00 0.00 0.00 20 1016.8
20260509215514 71 298 11.0 21.0 0.00 0.00 0.00 18 1017.0
20260509215015 72 279 8.0 21.0 0.00 0.00 0.00 21 1016.8
20260509214534 71 266 10.0 18.0 0.00 0.00 0.00 18 1017.0
20260509214012 70 309 1.0 15.0 0.00 0.00 0.00 20 1017.1
20260509213513 70 275 7.0 15.0 0.00 0.00 0.00 21 1017.3
20260509213032 70 252 6.0 15.0 0.00 0.00 0.00 21 1017.4
20260509212512 70 288 6.0 15.0 0.00 0.00 0.00 20 1017.4
20260509212013 71 238 9.0 15.0 0.00 0.00 0.00 19 1017.6
20260509211600 71 183 2.0 9.0 0.00 0.00 0.00 19 1017.5
20260509211015 70 205 6.0 9.0 0.00 0.00 0.00 21 1017.8
20260509210516 70 233 4.0 12.0 0.00 0.00 0.00 19 1017.7
20260509210031 71 292 7.0 15.0 0.00 0.00 0.00 20 1017.9
20260509205515 72 252 10.0 15.0 0.00 0.00 0.00 20 1017.7
20260509205019 72 262 5.0 13.0 0.00 0.00 0.00 21 1017.7
20260509204531 72 295 6.0 13.0 0.00 0.00 0.00 20 1017.7
20260509204015 72 277 7.0 17.0 0.00 0.00 0.00 19 1017.7
20260509203514 73 310 9.0 17.0 0.00 0.00 0.00 21 1017.9
20260509203040 73 240 8.0 17.0 0.00 0.00 0.00 20 1017.8
20260509202514 72 286 9.0 19.0 0.00 0.00 0.00 20 1017.9
20260509202018 71 295 10.0 21.0 0.00 0.00 0.00 20 1018.0
20260509201529 72 291 13.0 22.0 0.00 0.00 0.00 20 1018.0
20260509201014 72 288 13.0 25.0 0.00 0.00 0.00 19 1018.1
20260509200512 72 296 16.0 25.0 0.00 0.00 0.00 20 1018.1
20260509200032 71 297 10.0 20.0 0.00 0.00 0.00 20 1018.2
20260509195513 71 302 10.0 20.0 0.00 0.00 0.00 21 1018.2
20260509195012 71 313 6.0 14.0 0.00 0.00 0.00 22 1018.3
20260509194533 70 13 9.0 21.0 0.00 0.00 0.00 22 1018.5
20260509194012 70 328 13.0 21.0 0.00 0.00 0.00 22 1018.5
20260509193516 70 290 5.0 15.0 0.00 0.00 0.00 21 1018.6
20260509193033 71 290 7.0 19.0 0.00 0.00 0.00 22 1018.6
20260509192514 70 307 9.0 19.0 0.00 0.00 0.00 23 1018.7
20260509192017 70 289 5.0 14.0 0.00 0.00 0.00 23 1018.7
20260509191533 70 246 5.0 14.0 0.00 0.00 0.00 22 1018.7
20260509191018 70 240 5.0 15.0 0.00 0.00 0.00 23 1018.8
20260509190514 69 306 10.0 19.0 0.00 0.00 0.00 22 1018.8
20260509190041 70 295 9.0 19.0 0.00 0.00 0.00 22 1018.9
20260509185511 70 281 11.0 19.0 0.00 0.00 0.00 22 1018.9
20260509185014 70 285 10.0 16.0 0.00 0.00 0.00 22 1019.0
20260509184531 69 294 6.0 21.0 0.00 0.00 0.00 21 1019.0
20260509184014 69 267 11.0 21.0 0.00 0.00 0.00 21 1019.1
20260509183512 68 303 9.0 17.0 0.00 0.00 0.00 22 1019.1
20260509183036 68 259 6.0 20.0 0.00 0.00 0.00 21 1019.0
20260509182515 69 306 13.0 20.0 0.00 0.00 0.00 22 1019.2
20260509182011 69 281 14.0 20.0 0.00 0.00 0.00 22 1019.2
20260509181534 69 264 11.0 18.0 0.00 0.00 0.00 21 1019.1
20260509181013 69 266 11.0 17.0 0.00 0.00 0.00 24 1018.9
20260509180513 69 266 12.0 18.0 0.00 0.00 0.00 21 1019.0
20260509180034 69 269 12.0 18.0 0.00 0.00 0.00 22 1019.0
20260509175516 69 260 7.0 19.0 0.00 0.00 0.00 23 1019.2
20260509175014 68 292 11.0 19.0 0.00 0.00 0.00 21 1019.2
20260509174534 69 283 8.0 17.0 0.00 0.00 0.00 23 1019.1
20260509174013 68 264 9.0 16.0 0.00 0.00 0.00 24 1019.2
20260509173513 68 272 11.0 17.0 0.00 0.00 0.00 24 1019.4
20260509173032 68 276 8.0 17.0 0.00 0.00 0.00 23 1019.4
20260509172511 68 291 10.0 17.0 0.00 0.00 0.00 24 1019.4
20260509172013 68 283 7.0 16.0 0.00 0.00 0.00 23 1019.5
20260509171530 68 270 9.0 16.0 0.00 0.00 0.00 24 1019.5
20260509171015 67 278 10.0 16.0 0.00 0.00 0.00 23 1019.6
20260509170513 68 259 9.0 16.0 0.00 0.00 0.00 23 1019.5
20260509170034 67 251 6.0 12.0 0.00 0.00 0.00 23 1019.6
20260509165513 67 281 8.0 12.0 0.00 0.00 0.00 25 1019.5
20260509165017 66 206 7.0 11.0 0.00 0.00 0.00 23 1019.5
20260509164533 66 269 6.0 10.0 0.00 0.00 0.00 25 1019.5
20260509164013 66 274 5.0 10.0 0.00 0.00 0.00 24 1019.4
20260509163514 66 240 6.0 9.0 0.00 0.00 0.00 24 1019.4
20260509163046 66 253 5.0 9.0 0.00 0.00 0.00 25 1019.4
20260509162514 66 176 4.0 9.0 0.00 0.00 0.00 24 1019.3
20260509162015 66 227 5.0 10.0 0.00 0.00 0.00 24 1019.3
20260509161530 66 128 4.0 10.0 0.00 0.00 0.00 25 1019.3
20260509161013 65 213 4.0 7.0 0.00 0.00 0.00 26 1019.3
20260509160514 65 262 2.0 7.0 0.00 0.00 0.00 25 1019.4
20260509160032 65 238 4.0 7.0 0.00 0.00 0.00 27 1019.3
20260509155513 65 221 4.0 8.0 0.00 0.00 0.00 27 1019.3
20260509155014 65 234 4.0 8.0 0.00 0.00 0.00 25 1019.3
20260509154533 65 224 3.0 7.0 0.00 0.00 0.00 25 1019.4
20260509154015 65 253 2.0 5.0 0.00 0.00 0.00 26 1019.4
20260509153514 65 125 0.0 4.0 0.00 0.00 0.00 26 1019.4
20260509153035 64 0 1.0 4.0 0.00 0.00 0.00 27 1019.5
20260509152513 64 238 1.0 3.0 0.00 0.00 0.00 27 1019.5
20260509152016 64 252 1.0 4.0 0.00 0.00 0.00 27 1019.4
20260509151532 64 198 1.0 4.0 0.00 0.00 0.00 27 1019.4
20260509151011 63 0 1.0 4.0 0.00 0.00 0.00 28 1019.5
20260509150516 63 91 0.0 3.0 0.00 0.00 0.00 32 1019.4
20260509150032 62 120 1.0 5.0 0.00 0.00 0.00 33 1019.4
20260509145514 61 106 2.0 5.0 0.00 0.00 0.00 35 1019.4
20260509145017 60 88 2.0 5.0 0.00 0.00 0.00 36 1019.4
20260509144529 59 105 1.0 6.0 0.00 0.00 0.00 36 1019.5
20260509144012 59 111 4.0 6.0 0.00 0.00 0.00 37 1019.4
20260509143514 58 96 4.0 7.0 0.00 0.00 0.00 39 1019.4
20260509143031 57 103 4.0 7.0 0.00 0.00 0.00 39 1019.4
20260509142512 56 96 4.0 7.0 0.00 0.00 0.00 40 1019.5
20260509142012 56 101 5.0 8.0 0.00 0.00 0.00 41 1019.5
20260509141534 55 97 5.0 8.0 0.00 0.00 0.00 40 1019.4
20260509141013 55 95 6.0 9.0 0.00 0.00 0.00 42 1019.4
20260509140513 54 79 6.0 10.0 0.00 0.00 0.00 42 1019.4
20260509140032 54 109 7.0 11.0 0.00 0.00 0.00 42 1019.2
20260509135512 53 101 7.0 12.0 0.00 0.00 0.00 43 1019.3
20260509135013 52 105 7.0 12.0 0.00 0.00 0.00 44 1019.2
20260509134541 51 98 9.0 12.0 0.00 0.00 0.00 45 1019.2
20260509134012 51 96 6.0 10.0 0.00 0.00 0.00 46 1019.2
20260509133512 50 88 7.0 10.0 0.00 0.00 0.00 47 1019.2
20260509133031 49 93 7.0 9.0 0.00 0.00 0.00 48 1019.3
20260509132514 48 82 7.0 9.0 0.00 0.00 0.00 50 1019.2
20260509132017 47 94 6.0 10.0 0.00 0.00 0.00 51 1019.3
20260509131534 46 91 7.0 10.0 0.00 0.00 0.00 52 1019.2
20260509131017 45 93 6.0 9.0 0.00 0.00 0.00 54 1019.3
20260509130519 45 103 5.0 7.0 0.00 0.00 0.00 56 1019.2
20260509130030 43 98 5.0 7.0 0.00 0.00 0.00 57 1019.2
20260509125513 42 110 5.0 6.0 0.00 0.00 0.00 60 1019.2
20260509125016 41 101 4.0 8.0 0.00 0.00 0.00 61 1019.2
20260509124531 41 94 4.0 8.0 0.00 0.00 0.00 60 1019.0
20260509124013 41 118 5.0 7.0 0.00 0.00 0.00 59 1018.8
20260509123515 40 126 5.0 7.0 0.00 0.00 0.00 60 1018.9
20260509123034 39 111 4.0 8.0 0.00 0.00 0.00 62 1018.7
20260509122512 39 110 5.0 8.0 0.00 0.00 0.00 63 1018.6
20260509122014 38 105 4.0 8.0 0.00 0.00 0.00 64 1018.5
20260509121538 39 117 5.0 8.0 0.00 0.00 0.00 62 1018.4
20260509121013 39 127 5.0 8.0 0.00 0.00 0.00 62 1018.3
20260509120511 39 109 4.0 7.0 0.00 0.00 0.00 62 1018.3
20260509120034 39 113 5.0 7.0 0.00 0.00 0.00 61 1018.1
20260509115513 39 111 4.0 7.0 0.00 0.00 0.00 61 1018.1
20260509115014 40 107 5.0 7.0 0.00 0.00 0.00 60 1018.0
20260509114533 40 107 5.0 6.0 0.00 0.00 0.00 60 1018.0
20260509114013 40 110 4.0 6.0 0.00 0.00 0.00 60 1017.9
20260509113512 40 102 4.0 6.0 0.00 0.00 0.00 60 1018.0
20260509113034 40 125 4.0 6.0 0.00 0.00 0.00 61 1017.9
20260509112513 40 110 4.0 7.0 0.00 0.00 0.00 60 1017.9
20260509112012 41 109 5.0 8.0 0.00 0.00 0.00 59 1017.9
20260509111531 41 112 5.0 10.0 0.00 0.00 0.00 58 1017.9
20260509111014 42 110 5.0 10.0 0.00 0.00 0.00 58 1017.8
20260509110514 41 108 6.0 10.0 0.00 0.00 0.00 59 1017.9
20260509110033 41 85 5.0 8.0 0.00 0.00 0.00 60 1017.8
20260509105516 41 110 5.0 8.0 0.00 0.00 0.00 59 1017.9
20260509105014 40 93 6.0 8.0 0.00 0.00 0.00 61 1018.0
20260509104535 40 94 6.0 8.0 0.00 0.00 0.00 61 1018.0
20260509104011 39 80 5.0 8.0 0.00 0.00 0.00 63 1018.0
20260509103511 38 108 6.0 8.0 0.00 0.00 0.00 64 1017.9
20260509103035 39 91 4.0 7.0 0.00 0.00 0.00 62 1018.0
20260509102514 39 115 5.0 6.0 0.00 0.00 0.00 61 1018.0
20260509102015 40 120 4.0 6.0 0.00 0.00 0.00 59 1017.9
20260509101530 41 124 4.0 6.0 0.00 0.00 0.00 59 1018.0
20260509101012 40 95 5.0 6.0 0.00 0.00 0.00 60 1017.8
20260509100514 40 91 4.0 5.0 0.00 0.00 0.00 60 1017.9
20260509100032 40 100 4.0 6.0 0.00 0.00 0.00 59 1017.9
20260509095515 42 104 5.0 6.0 0.00 0.00 0.00 56 1017.9
20260509095012 42 100 4.0 7.0 0.00 0.00 0.00 57 1018.0
20260509094530 42 100 4.0 7.0 0.00 0.00 0.00 55 1017.9
20260509094010 43 102 4.0 6.0 0.00 0.00 0.00 54 1017.9
20260509093517 43 101 4.0 5.0 0.00 0.00 0.00 55 1017.9